Year,Month,Day,Hour,Minute,Value (Times are PST for temperature in C)
2021,04,19,08,00,13.20
2021,04,19,08,01,13.20
2021,04,19,08,02,13.30
2021,04,19,08,03,13.30
2021,04,19,08,04,13.30
2021,04,19,08,05,13.30
2021,04,19,08,06,13.30
2021,04,19,08,07,13.30
2021,04,19,08,08,13.40
2021,04,19,08,09,13.40
2021,04,19,08,10,13.50
2021,04,19,08,11,13.50
2021,04,19,08,12,13.60
2021,04,19,08,13,13.60
2021,04,19,08,14,13.70
2021,04,19,08,15,13.70
2021,04,19,08,16,13.80
2021,04,19,08,17,13.90
2021,04,19,08,18,13.90
2021,04,19,08,19,14.00
2021,04,19,08,20,14.00
2021,04,19,08,21,14.10
2021,04,19,08,22,14.10
2021,04,19,08,23,14.20
2021,04,19,08,24,14.20
2021,04,19,08,25,14.20
2021,04,19,08,26,14.20
2021,04,19,08,27,14.30
2021,04,19,08,28,14.40
2021,04,19,08,29,14.40
2021,04,19,08,30,14.50
2021,04,19,08,31,14.50
2021,04,19,08,32,14.50
2021,04,19,08,33,14.50
2021,04,19,08,34,14.60
2021,04,19,08,35,14.60
2021,04,19,08,36,14.70
2021,04,19,08,37,14.70
2021,04,19,08,38,14.70
2021,04,19,08,39,14.70
2021,04,19,08,40,14.70
2021,04,19,08,41,14.60
2021,04,19,08,42,14.60
2021,04,19,08,43,14.70
2021,04,19,08,44,14.70
2021,04,19,08,45,14.80
2021,04,19,08,46,14.80
2021,04,19,08,47,14.90
2021,04,19,08,48,14.90
2021,04,19,08,49,15.00
2021,04,19,08,50,15.00
2021,04,19,08,51,15.00
2021,04,19,08,52,15.00
2021,04,19,08,53,15.10
2021,04,19,08,54,15.10
2021,04,19,08,55,15.10
2021,04,19,08,56,15.20
2021,04,19,08,57,15.20
2021,04,19,08,58,15.20
2021,04,19,08,59,15.30
2021,04,19,09,00,15.30
2021,04,19,09,01,15.30
2021,04,19,09,02,15.30
2021,04,19,09,03,15.30
2021,04,19,09,04,15.30
2021,04,19,09,05,15.30
2021,04,19,09,06,15.30
2021,04,19,09,07,15.40
2021,04,19,09,08,15.40
2021,04,19,09,09,15.50
2021,04,19,09,10,15.50
2021,04,19,09,11,15.50
2021,04,19,09,12,15.50
2021,04,19,09,13,15.60
2021,04,19,09,14,15.60
2021,04,19,09,15,15.60
2021,04,19,09,16,15.70
2021,04,19,09,17,15.70
2021,04,19,09,18,15.70
2021,04,19,09,19,15.70
2021,04,19,09,20,15.70
2021,04,19,09,21,15.80
2021,04,19,09,22,15.80
2021,04,19,09,23,15.90
2021,04,19,09,24,15.90
2021,04,19,09,25,15.90
2021,04,19,09,26,15.90
2021,04,19,09,27,16.00
2021,04,19,09,28,16.10
2021,04,19,09,29,16.00
2021,04,19,09,30,16.10
2021,04,19,09,31,16.10
2021,04,19,09,32,16.10
2021,04,19,09,33,16.10
2021,04,19,09,34,16.20
2021,04,19,09,35,16.20
2021,04,19,09,36,16.30
2021,04,19,09,37,16.40
2021,04,19,09,38,16.40
2021,04,19,09,39,16.50
2021,04,19,09,40,16.60
2021,04,19,09,41,16.60
2021,04,19,09,42,16.60
2021,04,19,09,43,16.70
2021,04,19,09,44,16.70
2021,04,19,09,45,16.70
2021,04,19,09,46,16.70
2021,04,19,09,47,16.70
2021,04,19,09,48,16.80
2021,04,19,09,49,16.80
2021,04,19,09,50,16.90
2021,04,19,09,51,16.90
2021,04,19,09,52,17.00
2021,04,19,09,53,17.00
2021,04,19,09,54,17.10
2021,04,19,09,55,17.20
2021,04,19,09,56,17.10
2021,04,19,09,57,17.00
2021,04,19,09,58,17.00
2021,04,19,09,59,17.00
2021,04,19,10,00,16.90
2021,04,19,10,01,16.80
2021,04,19,10,02,16.80
2021,04,19,10,03,16.80
2021,04,19,10,04,16.80
2021,04,19,10,05,16.90
2021,04,19,10,06,16.90
2021,04,19,10,07,16.80
2021,04,19,10,08,16.70
2021,04,19,10,09,16.70
2021,04,19,10,10,16.70
2021,04,19,10,11,16.80
2021,04,19,10,12,16.80
2021,04,19,10,13,16.90
2021,04,19,10,14,16.90
2021,04,19,10,15,17.00
2021,04,19,10,16,17.10
2021,04,19,10,17,17.20
2021,04,19,10,18,17.30
2021,04,19,10,19,17.30
2021,04,19,10,20,17.30
2021,04,19,10,21,17.40
2021,04,19,10,22,17.40
2021,04,19,10,23,17.40
2021,04,19,10,24,17.30
2021,04,19,10,25,17.30
2021,04,19,10,26,17.30
2021,04,19,10,27,17.30
2021,04,19,10,28,17.40
2021,04,19,10,29,17.50
2021,04,19,10,30,17.50
2021,04,19,10,31,17.60
2021,04,19,10,32,17.60
2021,04,19,10,33,17.60
2021,04,19,10,34,17.60
2021,04,19,10,35,17.60
2021,04,19,10,36,17.60
2021,04,19,10,37,17.50
2021,04,19,10,38,17.40
2021,04,19,10,39,17.40
2021,04,19,10,40,17.50
2021,04,19,10,41,17.60
2021,04,19,10,42,17.60
2021,04,19,10,43,17.50
2021,04,19,10,44,17.50
2021,04,19,10,45,17.40
2021,04,19,10,46,17.40
2021,04,19,10,47,17.50
2021,04,19,10,48,17.50
2021,04,19,10,49,17.60
2021,04,19,10,50,17.70
2021,04,19,10,51,17.80
2021,04,19,10,52,17.90
2021,04,19,10,53,17.90
2021,04,19,10,54,17.90
2021,04,19,10,55,18.00
2021,04,19,10,56,18.10
2021,04,19,10,57,18.10
2021,04,19,10,58,18.10
2021,04,19,10,59,18.20
2021,04,19,11,00,18.20
2021,04,19,11,01,18.20
2021,04,19,11,02,18.20
2021,04,19,11,03,18.20
2021,04,19,11,04,18.20
2021,04,19,11,05,18.20
2021,04,19,11,06,18.20
2021,04,19,11,07,18.20
2021,04,19,11,08,18.20
2021,04,19,11,09,18.20
2021,04,19,11,10,18.20
2021,04,19,11,11,18.20
2021,04,19,11,12,18.20
2021,04,19,11,13,18.20
2021,04,19,11,14,18.20
2021,04,19,11,15,18.20
2021,04,19,11,16,18.30
2021,04,19,11,17,18.40
2021,04,19,11,18,18.40
2021,04,19,11,19,18.50
2021,04,19,11,20,18.50
2021,04,19,11,21,18.60
2021,04,19,11,22,18.60
2021,04,19,11,23,18.70
2021,04,19,11,24,18.70
2021,04,19,11,25,18.60
2021,04,19,11,26,18.60
2021,04,19,11,27,18.60
2021,04,19,11,28,18.60
2021,04,19,11,29,18.70
2021,04,19,11,30,18.60
2021,04,19,11,31,18.60
2021,04,19,11,32,18.50
2021,04,19,11,33,18.40
2021,04,19,11,34,18.30
2021,04,19,11,35,18.20
2021,04,19,11,36,18.20
2021,04,19,11,37,18.10
2021,04,19,11,38,18.10
2021,04,19,11,39,18.20
2021,04,19,11,40,18.20
2021,04,19,11,41,18.20
2021,04,19,11,42,18.20
2021,04,19,11,43,18.20
2021,04,19,11,44,18.00
2021,04,19,11,45,17.90
2021,04,19,11,46,17.90
2021,04,19,11,47,17.90
2021,04,19,11,48,17.90
2021,04,19,11,49,18.00
2021,04,19,11,50,18.10
2021,04,19,11,51,18.20
2021,04,19,11,52,18.20
2021,04,19,11,53,18.20
2021,04,19,11,54,18.20
2021,04,19,11,55,18.20
2021,04,19,11,56,18.30
2021,04,19,11,57,18.30
2021,04,19,11,58,18.30
2021,04,19,11,59,18.30
2021,04,19,12,00,18.20
2021,04,19,12,01,18.20
2021,04,19,12,02,18.20
2021,04,19,12,03,18.20
2021,04,19,12,04,18.20
2021,04,19,12,05,18.20
2021,04,19,12,06,18.20
2021,04,19,12,07,18.20
2021,04,19,12,08,18.20
2021,04,19,12,09,18.20
2021,04,19,12,10,18.20
2021,04,19,12,11,18.40
2021,04,19,12,12,18.50
2021,04,19,12,13,18.70
2021,04,19,12,14,18.80
2021,04,19,12,15,18.90
2021,04,19,12,16,18.90
2021,04,19,12,17,18.80
2021,04,19,12,18,18.70
2021,04,19,12,19,18.60
2021,04,19,12,20,18.60
2021,04,19,12,21,18.60
2021,04,19,12,22,18.50
2021,04,19,12,23,18.50
2021,04,19,12,24,18.60
2021,04,19,12,25,18.60
2021,04,19,12,26,18.60
2021,04,19,12,27,18.60
2021,04,19,12,28,18.70
2021,04,19,12,29,18.70
2021,04,19,12,30,18.90
2021,04,19,12,31,19.00
2021,04,19,12,32,19.10
2021,04,19,12,33,19.30
2021,04,19,12,34,19.30
2021,04,19,12,35,19.30
2021,04,19,12,36,19.30
2021,04,19,12,37,19.30
2021,04,19,12,38,19.20
2021,04,19,12,39,19.10
2021,04,19,12,40,19.10
2021,04,19,12,41,19.10
2021,04,19,12,42,19.20
2021,04,19,12,43,19.20
2021,04,19,12,44,19.30
2021,04,19,12,45,19.30
2021,04,19,12,46,19.40
2021,04,19,12,47,19.40
2021,04,19,12,48,19.50
2021,04,19,12,49,19.60
2021,04,19,12,50,19.60
2021,04,19,12,51,19.70
2021,04,19,12,52,19.70
2021,04,19,12,53,19.80
2021,04,19,12,54,19.90
2021,04,19,12,55,20.00
2021,04,19,12,56,20.10
2021,04,19,12,57,20.20
2021,04,19,12,58,20.10
2021,04,19,12,59,20.00
2021,04,19,13,00,19.90
2021,04,19,13,01,19.90
2021,04,19,13,02,19.80
2021,04,19,13,03,19.80
2021,04,19,13,04,19.80
2021,04,19,13,05,19.70
2021,04,19,13,06,19.60
2021,04,19,13,07,19.50
2021,04,19,13,08,19.40
2021,04,19,13,09,19.40
2021,04,19,13,10,19.40
2021,04,19,13,11,19.40
2021,04,19,13,12,19.50
2021,04,19,13,13,19.50
2021,04,19,13,14,19.60
2021,04,19,13,15,19.60
2021,04,19,13,16,19.60
2021,04,19,13,17,19.60
2021,04,19,13,18,19.70
2021,04,19,13,19,19.50
2021,04,19,13,20,19.50
2021,04,19,13,21,19.40
2021,04,19,13,22,19.50
2021,04,19,13,23,19.60
2021,04,19,13,24,19.70
2021,04,19,13,25,19.80
2021,04,19,13,26,19.90
2021,04,19,13,27,20.00
2021,04,19,13,28,20.10
2021,04,19,13,29,20.20
2021,04,19,13,30,20.20
2021,04,19,13,31,20.30
2021,04,19,13,32,20.30
2021,04,19,13,33,20.20
2021,04,19,13,34,20.10
2021,04,19,13,35,20.10
2021,04,19,13,36,20.10
2021,04,19,13,37,19.90
2021,04,19,13,38,19.90
2021,04,19,13,39,19.90
2021,04,19,13,40,19.90
2021,04,19,13,41,19.80
2021,04,19,13,42,19.80
2021,04,19,13,43,19.90
2021,04,19,13,44,19.90
2021,04,19,13,45,20.00
2021,04,19,13,46,20.10
2021,04,19,13,47,20.20
2021,04,19,13,48,20.30
2021,04,19,13,49,20.30
2021,04,19,13,50,20.40
2021,04,19,13,51,20.40
2021,04,19,13,52,20.40
2021,04,19,13,53,20.30
2021,04,19,13,54,20.30
2021,04,19,13,55,20.20
2021,04,19,13,56,20.30
2021,04,19,13,57,20.20
2021,04,19,13,58,20.20
2021,04,19,13,59,20.00
2021,04,19,14,00,19.90
2021,04,19,14,01,19.90
2021,04,19,14,02,19.90
2021,04,19,14,03,19.90
2021,04,19,14,04,19.90
2021,04,19,14,05,19.90
2021,04,19,14,06,19.90
2021,04,19,14,07,19.90
2021,04,19,14,08,20.00
2021,04,19,14,09,20.10
2021,04,19,14,10,20.20
2021,04,19,14,11,20.20
2021,04,19,14,12,20.20
2021,04,19,14,13,20.20
2021,04,19,14,14,20.20
2021,04,19,14,15,20.30
2021,04,19,14,16,20.30
2021,04,19,14,17,20.30
2021,04,19,14,18,20.30
2021,04,19,14,19,20.30
2021,04,19,14,20,20.30
2021,04,19,14,21,20.30
2021,04,19,14,22,20.30
2021,04,19,14,23,20.40
2021,04,19,14,24,20.40
2021,04,19,14,25,20.50
2021,04,19,14,26,20.50
2021,04,19,14,27,20.60
2021,04,19,14,28,20.60
2021,04,19,14,29,20.60
2021,04,19,14,30,20.60
2021,04,19,14,31,20.60
2021,04,19,14,32,20.70
2021,04,19,14,33,20.70
2021,04,19,14,34,20.70
2021,04,19,14,35,20.70
2021,04,19,14,36,20.70
2021,04,19,14,37,20.60
2021,04,19,14,38,20.60
2021,04,19,14,39,20.50
2021,04,19,14,40,20.50
2021,04,19,14,41,20.60
2021,04,19,14,42,20.60
2021,04,19,14,43,20.70
2021,04,19,14,44,20.70
2021,04,19,14,45,20.70
2021,04,19,14,46,20.80
2021,04,19,14,47,20.80
2021,04,19,14,48,20.80
2021,04,19,14,49,20.90
2021,04,19,14,50,20.90
2021,04,19,14,51,20.90
2021,04,19,14,52,20.90
2021,04,19,14,53,20.90
2021,04,19,14,54,20.90
2021,04,19,14,55,21.00
2021,04,19,14,56,20.90
2021,04,19,14,57,20.90
2021,04,19,14,58,20.80
2021,04,19,14,59,20.70
2021,04,19,15,00,20.70
2021,04,19,15,01,20.70
2021,04,19,15,02,20.70
2021,04,19,15,03,20.70
2021,04,19,15,04,20.70
2021,04,19,15,05,20.70
2021,04,19,15,06,20.70
2021,04,19,15,07,20.80
2021,04,19,15,08,20.80
2021,04,19,15,09,20.90
2021,04,19,15,10,20.90
2021,04,19,15,11,21.00
2021,04,19,15,12,21.00
2021,04,19,15,13,21.00
2021,04,19,15,14,21.00
2021,04,19,15,15,20.90
2021,04,19,15,16,20.80
2021,04,19,15,17,20.80
2021,04,19,15,18,20.80
2021,04,19,15,19,20.70
2021,04,19,15,20,20.70
2021,04,19,15,21,20.60
2021,04,19,15,22,20.50
2021,04,19,15,23,20.40
2021,04,19,15,24,20.40
2021,04,19,15,25,20.40
2021,04,19,15,26,20.40
2021,04,19,15,27,20.50
2021,04,19,15,28,20.50
2021,04,19,15,29,20.60
2021,04,19,15,30,20.70
2021,04,19,15,31,20.70
2021,04,19,15,32,20.70
2021,04,19,15,33,20.70
2021,04,19,15,34,20.70
2021,04,19,15,35,20.80
2021,04,19,15,36,20.80
2021,04,19,15,37,20.90
2021,04,19,15,38,21.00
2021,04,19,15,39,21.00
2021,04,19,15,40,21.00
2021,04,19,15,41,21.00
2021,04,19,15,42,21.00
2021,04,19,15,43,21.00
2021,04,19,15,44,21.00
2021,04,19,15,45,21.00
2021,04,19,15,46,21.00
2021,04,19,15,47,21.00
2021,04,19,15,48,21.10
2021,04,19,15,49,21.00
2021,04,19,15,50,21.00
2021,04,19,15,51,20.90
2021,04,19,15,52,20.90
2021,04,19,15,53,21.00
2021,04,19,15,54,21.10
2021,04,19,15,55,21.20
2021,04,19,15,56,21.30
2021,04,19,15,57,21.30
2021,04,19,15,58,21.30
2021,04,19,15,59,21.30
2021,04,19,16,00,21.30
2021,04,19,16,01,21.30
2021,04,19,16,02,21.30
2021,04,19,16,03,21.30
2021,04,19,16,04,21.30
2021,04,19,16,05,21.40
2021,04,19,16,06,21.40
2021,04,19,16,07,21.40
2021,04,19,16,08,21.40
2021,04,19,16,09,21.50
2021,04,19,16,10,21.60
2021,04,19,16,11,21.60
2021,04,19,16,12,21.60
2021,04,19,16,13,21.60
2021,04,19,16,14,21.60
2021,04,19,16,15,21.60
2021,04,19,16,16,21.50
2021,04,19,16,17,21.40
2021,04,19,16,18,21.30
2021,04,19,16,19,21.30
2021,04,19,16,20,21.30
2021,04,19,16,21,21.30
2021,04,19,16,22,21.30
2021,04,19,16,23,21.20
2021,04,19,16,24,21.10
2021,04,19,16,25,21.10
2021,04,19,16,26,21.10
2021,04,19,16,27,21.10
2021,04,19,16,28,21.10
2021,04,19,16,29,21.10
2021,04,19,16,30,21.10
2021,04,19,16,31,21.10
2021,04,19,16,32,21.20
2021,04,19,16,33,21.30
2021,04,19,16,34,21.30
2021,04,19,16,35,21.30
2021,04,19,16,36,21.30
2021,04,19,16,37,21.30
2021,04,19,16,38,21.30
2021,04,19,16,39,21.30
2021,04,19,16,40,21.30
2021,04,19,16,41,21.30
2021,04,19,16,42,21.30
2021,04,19,16,43,21.40
2021,04,19,16,44,21.40
2021,04,19,16,45,21.40
2021,04,19,16,46,21.40
2021,04,19,16,47,21.40
2021,04,19,16,48,21.40
2021,04,19,16,49,21.30
2021,04,19,16,50,21.20
2021,04,19,16,51,21.00
2021,04,19,16,52,20.90
2021,04,19,16,53,20.80
2021,04,19,16,54,20.70
2021,04,19,16,55,20.60
2021,04,19,16,56,20.50
2021,04,19,16,57,20.50
2021,04,19,16,58,20.60
2021,04,19,16,59,20.60
2021,04,19,17,00,20.60
2021,04,19,17,01,20.60
2021,04,19,17,02,20.60
2021,04,19,17,03,20.60
2021,04,19,17,04,20.50
2021,04,19,17,05,20.40
2021,04,19,17,06,20.30
2021,04,19,17,07,20.20
2021,04,19,17,08,20.10
2021,04,19,17,09,19.90
2021,04,19,17,10,19.90
2021,04,19,17,11,19.90
2021,04,19,17,12,19.90
2021,04,19,17,13,19.90
2021,04,19,17,14,19.90
2021,04,19,17,15,20.00
2021,04,19,17,16,20.00
2021,04,19,17,17,19.90
2021,04,19,17,18,19.90
2021,04,19,17,19,19.90
2021,04,19,17,20,19.90
2021,04,19,17,21,19.90
2021,04,19,17,22,19.90
2021,04,19,17,23,19.90
2021,04,19,17,24,19.90
2021,04,19,17,25,19.90
2021,04,19,17,26,19.80
2021,04,19,17,27,19.70
2021,04,19,17,28,19.70
2021,04,19,17,29,19.70
2021,04,19,17,30,19.70
2021,04,19,17,31,19.70
2021,04,19,17,32,19.80
2021,04,19,17,33,19.80
2021,04,19,17,34,19.80
2021,04,19,17,35,19.80
2021,04,19,17,36,19.80
2021,04,19,17,37,19.80
2021,04,19,17,38,19.90
2021,04,19,17,39,19.90
2021,04,19,17,40,19.90
2021,04,19,17,41,19.90
2021,04,19,17,42,19.90
2021,04,19,17,43,19.90
2021,04,19,17,44,19.90
2021,04,19,17,45,19.90
2021,04,19,17,46,19.80
2021,04,19,17,47,19.60
2021,04,19,17,48,19.50
2021,04,19,17,49,19.40
2021,04,19,17,50,19.20
2021,04,19,17,51,19.10
2021,04,19,17,52,19.00
2021,04,19,17,53,18.90
2021,04,19,17,54,19.00
2021,04,19,17,55,19.10
2021,04,19,17,56,19.10
2021,04,19,17,57,19.00
2021,04,19,17,58,18.90
2021,04,19,17,59,18.90
2021,04,19,18,00,19.00
2021,04,19,18,01,19.10
2021,04,19,18,02,19.10
2021,04,19,18,03,19.00
2021,04,19,18,04,18.90
2021,04,19,18,05,18.90
2021,04,19,18,06,18.90
2021,04,19,18,07,18.80
2021,04,19,18,08,18.70
2021,04,19,18,09,18.70
2021,04,19,18,10,18.70
2021,04,19,18,11,18.60
2021,04,19,18,12,18.60
2021,04,19,18,13,18.60
2021,04,19,18,14,18.60
2021,04,19,18,15,18.60
2021,04,19,18,16,18.60
2021,04,19,18,17,18.60
2021,04,19,18,18,18.60
2021,04,19,18,19,18.50
2021,04,19,18,20,18.40
2021,04,19,18,21,18.30
2021,04,19,18,22,18.30
2021,04,19,18,23,18.20
2021,04,19,18,24,18.20
2021,04,19,18,25,18.20
2021,04,19,18,26,18.30
2021,04,19,18,27,18.30
2021,04,19,18,28,18.30
2021,04,19,18,29,18.30
2021,04,19,18,30,18.30
2021,04,19,18,31,18.30
2021,04,19,18,32,18.40
2021,04,19,18,33,18.40
2021,04,19,18,34,18.40
2021,04,19,18,35,18.40
2021,04,19,18,36,18.40
2021,04,19,18,37,18.40
2021,04,19,18,38,18.40
2021,04,19,18,39,18.40
2021,04,19,18,40,18.30
2021,04,19,18,41,18.30
2021,04,19,18,42,18.30
2021,04,19,18,43,18.30
2021,04,19,18,44,18.30
2021,04,19,18,45,18.30
2021,04,19,18,46,18.30
2021,04,19,18,47,18.30
2021,04,19,18,48,18.30
2021,04,19,18,49,18.30
2021,04,19,18,50,18.30
2021,04,19,18,51,18.40
2021,04,19,18,52,18.40
2021,04,19,18,53,18.40
2021,04,19,18,54,18.40
2021,04,19,18,55,18.40
2021,04,19,18,56,18.40
2021,04,19,18,57,18.40
2021,04,19,18,58,18.40
2021,04,19,18,59,18.40
2021,04,19,19,00,18.40
2021,04,19,19,01,18.40
2021,04,19,19,02,18.40
2021,04,19,19,03,18.40
2021,04,19,19,04,18.40
